Kaami — C6VO9 — position and weather

sailwx.info

Track history (hours):
 
Tides and Currents Weather Stations Pressure Air Temp Water Temp Dewpoint Dewpoint Depression Visibility Wind Speed Wind Dir Waves Ship Positions

Kaami

Last reported at 2014-Oct-24 21:03 UTC. Time now 2014-Oct-24 23:58 UTC.
Position N 59°13' E 004°52'.

Length 90 m; draft 5.6 m.

Type: Cargo ship. MMSI: 308542000.

Date/timePositionNaut miles runAvg speedWind from/ knotsBaromVisibWave heightAir tempDewpointWater temp
2014-Oct-24 21:03N 59°13' E 004°52'4 8.9
2014-Oct-24 20:33N 59°09' E 004°57'7 7.3
2014-Oct-24 19:33N 59°06' E 005°10'7 7.0
2014-Oct-24 18:33N 59°08' E 005°23'9 9.3
2014-Oct-24 17:34N 59°02' E 005°37'6 6.4
2014-Oct-24 16:33N 58°59' E 005°47'2 2.1
2014-Oct-24 15:33N 58°57' E 005°45'0 0.0
2014-Oct-24 14:33N 58°57' E 005°45'0 0.0
2014-Oct-24 13:33N 58°57' E 005°45'0 0.0
2014-Oct-24 12:33N 58°57' E 005°45'0 0.0
2014-Oct-24 11:33N 58°57' E 005°45'0 0.0
2014-Oct-24 10:33N 58°57' E 005°45'0 0.0
2014-Oct-24 09:33N 58°57' E 005°45'0 0.0
2014-Oct-24 08:33N 58°57' E 005°45'0 0.0
2014-Oct-24 07:33N 58°57' E 005°45'0 0.0
2014-Oct-24 06:33N 58°57' E 005°45'0 0.0
2014-Oct-24 05:33N 58°57' E 005°45'0 0.0
2014-Oct-24 04:33N 58°57' E 005°45'0 0.0
2014-Oct-24 03:33N 58°57' E 005°45'0 0.0
2014-Oct-24 02:33N 58°57' E 005°45'0 0.0
2014-Oct-24 01:33N 58°57' E 005°45'0 0.0
2014-Oct-24 00:33N 58°57' E 005°45'0 0.0
2014-Oct-23 23:33N 58°57' E 005°45'0 0.0
2014-Oct-23 22:33N 58°57' E 005°45'0 0.0
2014-Oct-23 21:33N 58°57' E 005°45'0 0.0
2014-Oct-23 20:33N 58°57' E 005°45'0 0.0
2014-Oct-23 19:33N 58°57' E 005°45'0 0.0
2014-Oct-23 18:33N 58°57' E 005°45'0 0.2
2014-Oct-23 17:33N 58°57' E 005°46'5 5.1
2014-Oct-23 16:33N 59°02' E 005°43'6 5.6
2014-Oct-23 15:33N 58°60' E 005°33'9 8.6
2014-Oct-23 14:33N 58°51' E 005°31'20 7.9
2014-Oct-23 12:06N 58°32' E 005°25'5 8.1
2014-Oct-23 11:26N 58°27' E 005°26'17 8.6
2014-Oct-23 09:28N 58°10' E 005°27'9 9.7
2014-Oct-23 08:33N 58°01' E 005°27'222 6.0
2014-Oct-21 19:27N 54°19' E 004°60'7 5.3
2014-Oct-21 18:09N 54°12' E 004°57'3 5.7
2014-Oct-21 17:33N 54°09' E 004°56'6 6.0
2014-Oct-21 16:31N 54°03' E 004°55'12 6.3
2014-Oct-21 14:33N 53°51' E 004°53'17 7.2
2014-Oct-21 12:13N 53°34' E 004°48'5 7.9
2014-Oct-21 11:33N 53°29' E 004°45'8 8.2
2014-Oct-21 10:32N 53°22' E 004°40'34 8.1
2014-Oct-21 06:24N 52°48' E 004°30'7 8.2
2014-Oct-21 05:32N 52°41' E 004°30'8 8.5
2014-Oct-21 04:33N 52°33' E 004°30'6 6.0
2014-Oct-21 03:33N 52°28' E 004°36'5 5.0
2014-Oct-21 02:33N 52°26' E 004°43'5 5.3
2014-Oct-21 01:33N 52°24' E 004°52'0 0.0
2014-Oct-21 00:32N 52°24' E 004°52'0 0.0
2014-Oct-20 23:32N 52°24' E 004°52'0 0.0
2014-Oct-20 22:32N 52°24' E 004°52'0 0.0
2014-Oct-20 21:32N 52°24' E 004°52'0 0.0
2014-Oct-20 20:32N 52°24' E 004°52'0 0.0
2014-Oct-20 19:32N 52°24' E 004°52'0 0.0
2014-Oct-20 18:32N 52°24' E 004°52'0 0.0
2014-Oct-20 17:32N 52°24' E 004°52'0 0.0
2014-Oct-20 16:32N 52°24' E 004°52'0 0.1
2014-Oct-20 15:32N 52°24' E 004°51'1 0.6
2014-Oct-20 14:31N 52°24' E 004°52'0 0.0
2014-Oct-20 13:31N 52°24' E 004°52'0 0.0
2014-Oct-20 12:31N 52°24' E 004°52'0 0.0
2014-Oct-20 11:31N 52°24' E 004°52'0 0.0
2014-Oct-20 10:31N 52°24' E 004°52'0 0.0
2014-Oct-20 09:31N 52°24' E 004°52'0 0.0
2014-Oct-20 08:31N 52°24' E 004°52'0 0.0
2014-Oct-20 07:31N 52°24' E 004°52'0 0.0
2014-Oct-20 06:31N 52°24' E 004°52'0 0.0
2014-Oct-20 05:31N 52°24' E 004°52'0 0.0
2014-Oct-20 04:31N 52°24' E 004°52'0 0.0
2014-Oct-20 03:31N 52°24' E 004°52'0 0.0
2014-Oct-20 02:31N 52°24' E 004°52'0 0.0
2014-Oct-20 01:31N 52°24' E 004°52'0 0.0
2014-Oct-20 00:31N 52°24' E 004°52'0 0.0
2014-Oct-19 23:31N 52°24' E 004°52'0 0.0
2014-Oct-19 22:31N 52°24' E 004°52'0 0.0
2014-Oct-19 21:31N 52°24' E 004°52'0 0.0
2014-Oct-19 20:31N 52°24' E 004°52'0 0.0
2014-Oct-19 19:31N 52°24' E 004°52'1 1.2
2014-Oct-19 18:34N 52°25' E 004°51'10 9.8
2014-Oct-19 17:33N 52°28' E 004°36'6 6.0
2014-Oct-19 16:33N 52°29' E 004°26'1010.0
2014-Oct-19 15:33N 52°29' E 004°10'1010.3
2014-Oct-19 14:33N 52°26' E 003°54'10 9.5
2014-Oct-19 13:33N 52°21' E 003°40'10 9.3
2014-Oct-19 12:30N 52°15' E 003°27'9 9.4
2014-Oct-19 11:32N 52°11' E 003°15'4511.2
2014-Oct-19 07:34N 51°38' E 002°26'1010.3
2014-Oct-19 06:33N 51°29' E 002°15'10 9.5
2014-Oct-19 05:33N 51°21' E 002°09'9 8.9
2014-Oct-19 04:34N 51°13' E 002°02'9 8.7
2014-Oct-19 03:33N 51°08' E 001°50'9 8.7
2014-Oct-19 02:33N 51°02' E 001°41'9 9.2
2014-Oct-19 01:33N 50°55' E 001°31'1010.0
2014-Oct-19 00:31N 50°45' E 001°24'  
2014-Oct-16 18:07N 50°30' E 000°13'7 8.9
2014-Oct-16 17:18N 50°32' E 000°24'6 8.3
2014-Oct-16 16:33N 50°35' E 000°32'8 8.0
2014-Oct-16 15:33N 50°40' E 000°42'8 7.6
2014-Oct-16 14:33N 50°45' E 000°51'17 7.9
2014-Oct-16 12:21N 50°56' E 001°12'7 9.1
2014-Oct-16 11:33N 51°01' E 001°21'9 9.3
2014-Oct-16 10:33N 51°07' E 001°32'9 8.8
2014-Oct-16 09:33N 51°13' E 001°43'9 8.5
2014-Oct-16 08:34N 51°20' E 001°49'3 3.3
2014-Oct-16 07:33N 51°23' E 001°51'8 7.5
2014-Oct-16 06:33N 51°29' E 001°58'8 8.1
2014-Oct-16 05:33N 51°35' E 002°07'8 8.1
2014-Oct-16 04:32N 51°41' E 002°16'  
Track history (hours):
 
Tides and Currents Weather Stations Pressure Air Temp Water Temp Dewpoint Dewpoint Depression Visibility Wind Speed Wind Dir Waves Ship Positions

Kaami

Last reported at 2014-Oct-24 21:03 UTC. Time now 2014-Oct-24 23:58 UTC.
Position N 59°13' E 004°52'.

Length 90 m; draft 5.6 m.

Type: Cargo ship. MMSI: 308542000.

Date/timePositionNaut miles runAvg speedWind from/ knotsBaromVisibWave heightAir tempDewpointWater temp
2014-Oct-24 21:03N 59°13' E 004°52'4 8.9
2014-Oct-24 20:33N 59°09' E 004°57'7 7.3
2014-Oct-24 19:33N 59°06' E 005°10'7 7.0
2014-Oct-24 18:33N 59°08' E 005°23'9 9.3
2014-Oct-24 17:34N 59°02' E 005°37'6 6.4
2014-Oct-24 16:33N 58°59' E 005°47'2 2.1
2014-Oct-24 15:33N 58°57' E 005°45'0 0.0
2014-Oct-24 14:33N 58°57' E 005°45'0 0.0
2014-Oct-24 13:33N 58°57' E 005°45'0 0.0
2014-Oct-24 12:33N 58°57' E 005°45'0 0.0
2014-Oct-24 11:33N 58°57' E 005°45'0 0.0
2014-Oct-24 10:33N 58°57' E 005°45'0 0.0
2014-Oct-24 09:33N 58°57' E 005°45'0 0.0
2014-Oct-24 08:33N 58°57' E 005°45'0 0.0
2014-Oct-24 07:33N 58°57' E 005°45'0 0.0
2014-Oct-24 06:33N 58°57' E 005°45'0 0.0
2014-Oct-24 05:33N 58°57' E 005°45'0 0.0
2014-Oct-24 04:33N 58°57' E 005°45'0 0.0
2014-Oct-24 03:33N 58°57' E 005°45'0 0.0
2014-Oct-24 02:33N 58°57' E 005°45'0 0.0
2014-Oct-24 01:33N 58°57' E 005°45'0 0.0
2014-Oct-24 00:33N 58°57' E 005°45'0 0.0
2014-Oct-23 23:33N 58°57' E 005°45'0 0.0
2014-Oct-23 22:33N 58°57' E 005°45'0 0.0
2014-Oct-23 21:33N 58°57' E 005°45'0 0.0
2014-Oct-23 20:33N 58°57' E 005°45'0 0.0
2014-Oct-23 19:33N 58°57' E 005°45'0 0.0
2014-Oct-23 18:33N 58°57' E 005°45'0 0.2
2014-Oct-23 17:33N 58°57' E 005°46'5 5.1
2014-Oct-23 16:33N 59°02' E 005°43'6 5.6
2014-Oct-23 15:33N 58°60' E 005°33'9 8.6
2014-Oct-23 14:33N 58°51' E 005°31'20 7.9
2014-Oct-23 12:06N 58°32' E 005°25'5 8.1
2014-Oct-23 11:26N 58°27' E 005°26'17 8.6
2014-Oct-23 09:28N 58°10' E 005°27'9 9.7
2014-Oct-23 08:33N 58°01' E 005°27'222 6.0
2014-Oct-21 19:27N 54°19' E 004°60'7 5.3
2014-Oct-21 18:09N 54°12' E 004°57'3 5.7
2014-Oct-21 17:33N 54°09' E 004°56'6 6.0
2014-Oct-21 16:31N 54°03' E 004°55'12 6.3
2014-Oct-21 14:33N 53°51' E 004°53'17 7.2
2014-Oct-21 12:13N 53°34' E 004°48'5 7.9
2014-Oct-21 11:33N 53°29' E 004°45'8 8.2
2014-Oct-21 10:32N 53°22' E 004°40'34 8.1
2014-Oct-21 06:24N 52°48' E 004°30'7 8.2
2014-Oct-21 05:32N 52°41' E 004°30'8 8.5
2014-Oct-21 04:33N 52°33' E 004°30'6 6.0
2014-Oct-21 03:33N 52°28' E 004°36'5 5.0
2014-Oct-21 02:33N 52°26' E 004°43'5 5.3
2014-Oct-21 01:33N 52°24' E 004°52'0 0.0
2014-Oct-21 00:32N 52°24' E 004°52'0 0.0
2014-Oct-20 23:32N 52°24' E 004°52'0 0.0
2014-Oct-20 22:32N 52°24' E 004°52'0 0.0
2014-Oct-20 21:32N 52°24' E 004°52'0 0.0
2014-Oct-20 20:32N 52°24' E 004°52'0 0.0
2014-Oct-20 19:32N 52°24' E 004°52'0 0.0
2014-Oct-20 18:32N 52°24' E 004°52'0 0.0
2014-Oct-20 17:32N 52°24' E 004°52'0 0.0
2014-Oct-20 16:32N 52°24' E 004°52'0 0.1
2014-Oct-20 15:32N 52°24' E 004°51'1 0.6
2014-Oct-20 14:31N 52°24' E 004°52'0 0.0
2014-Oct-20 13:31N 52°24' E 004°52'0 0.0
2014-Oct-20 12:31N 52°24' E 004°52'0 0.0
2014-Oct-20 11:31N 52°24' E 004°52'0 0.0
2014-Oct-20 10:31N 52°24' E 004°52'0 0.0
2014-Oct-20 09:31N 52°24' E 004°52'0 0.0
2014-Oct-20 08:31N 52°24' E 004°52'0 0.0
2014-Oct-20 07:31N 52°24' E 004°52'0 0.0
2014-Oct-20 06:31N 52°24' E 004°52'0 0.0
2014-Oct-20 05:31N 52°24' E 004°52'0 0.0
2014-Oct-20 04:31N 52°24' E 004°52'0 0.0
2014-Oct-20 03:31N 52°24' E 004°52'0 0.0
2014-Oct-20 02:31N 52°24' E 004°52'0 0.0
2014-Oct-20 01:31N 52°24' E 004°52'0 0.0
2014-Oct-20 00:31N 52°24' E 004°52'0 0.0
2014-Oct-19 23:31N 52°24' E 004°52'0 0.0
2014-Oct-19 22:31N 52°24' E 004°52'0 0.0
2014-Oct-19 21:31N 52°24' E 004°52'0 0.0
2014-Oct-19 20:31N 52°24' E 004°52'0 0.0
2014-Oct-19 19:31N 52°24' E 004°52'1 1.2
2014-Oct-19 18:34N 52°25' E 004°51'10 9.8
2014-Oct-19 17:33N 52°28' E 004°36'6 6.0
2014-Oct-19 16:33N 52°29' E 004°26'1010.0
2014-Oct-19 15:33N 52°29' E 004°10'1010.3
2014-Oct-19 14:33N 52°26' E 003°54'10 9.5
2014-Oct-19 13:33N 52°21' E 003°40'10 9.3
2014-Oct-19 12:30N 52°15' E 003°27'9 9.4
2014-Oct-19 11:32N 52°11' E 003°15'4511.2
2014-Oct-19 07:34N 51°38' E 002°26'1010.3
2014-Oct-19 06:33N 51°29' E 002°15'10 9.5
2014-Oct-19 05:33N 51°21' E 002°09'9 8.9
2014-Oct-19 04:34N 51°13' E 002°02'9 8.7
2014-Oct-19 03:33N 51°08' E 001°50'9 8.7
2014-Oct-19 02:33N 51°02' E 001°41'9 9.2
2014-Oct-19 01:33N 50°55' E 001°31'1010.0
2014-Oct-19 00:31N 50°45' E 001°24'  
2014-Oct-16 18:07N 50°30' E 000°13'7 8.9
2014-Oct-16 17:18N 50°32' E 000°24'6 8.3
2014-Oct-16 16:33N 50°35' E 000°32'8 8.0
2014-Oct-16 15:33N 50°40' E 000°42'8 7.6
2014-Oct-16 14:33N 50°45' E 000°51'17 7.9
2014-Oct-16 12:21N 50°56' E 001°12'7 9.1
2014-Oct-16 11:33N 51°01' E 001°21'9 9.3
2014-Oct-16 10:33N 51°07' E 001°32'9 8.8
2014-Oct-16 09:33N 51°13' E 001°43'9 8.5
2014-Oct-16 08:34N 51°20' E 001°49'3 3.3
2014-Oct-16 07:33N 51°23' E 001°51'8 7.5
2014-Oct-16 06:33N 51°29' E 001°58'8 8.1
2014-Oct-16 05:33N 51°35' E 002°07'8 8.1
2014-Oct-16 04:32N 51°41' E 002°16'  

Dump ship's entire track history